{"data":{"norad_id":49156,"epoch":"2026-09-20T00:20:29.498784Z","epoch_age_seconds":83274,"freshness":"FRESH","line1":"1 49156U 21082AC  26263.01423031  .00000193  00000+0  24015-4 0  9999","line2":"2 49156  69.9977 124.4860 0002666 269.0212  91.0641 14.98318487277157","mean_motion":14.98318487,"eccentricity":0.0002666,"inclination_deg":69.9977,"raan_deg":124.486,"arg_perigee_deg":269.0212,"mean_anomaly_deg":91.0641,"bstar":2.4015e-5,"rev_number":27715,"period_min":96.107737606791,"perigee_km":570.23856325863,"apogee_km":573.94442509173,"semimajor_km":6950.2284941752,"source":"CELESTRAK","updated_at":"2026-09-20T09:00:39.250722Z"}}